Find Starlink 4408

NORAD ID: 53206 Int'l Des: 2022-084 Owner: SPXS Country: US Constellation: starlink operational
LEOCIRCULARRETROGRADESSO

現在のビュー

3D地球を読み込み中...

About Starlink 4408

Starlink 4408 (NORAD 53206) is a starlink constellation satellite (v1.5) launched Jul 22, 2022 by SPXS of US. It operates in LEO, CIRCULAR, RETROGRADE, SSO orbit with a mass of 297.00 kg.

次回通過

Passes for default location (London). Set your location on the main map for personalized predictions.

高度履歴

Loading altitude history...

軌道要素

1 53206U 22084T 26209.16668980 .01005692 00000-0 34835-1 0 9992
2 53206 97.2846 267.3252 0001355 55.5261 336.3484 15.27100493 5771
Epoch: Jul 28, 2026 • Age: 15 hours

現在のステータス

高度 484.1 km
遠地点 / 近地点 N/A
速度 7.62 km/s
衛星直下点 6.60°N, 139.17°W
打ち上げ日 Jul 22, 2022
運用期間 4 years
タイプ internet

技術仕様

分類 Payload
質量 297.00 kg
乾燥質量 275.00 kg
総質量 297.00 kg
長さ 0.20 m
直径 2.80 m
スパン 9.00 m
形状 Box + pan
製造者 SPXS
バスタイプ Starlink
フェーズステータス In Orbit
所有者/国 SPXS/US

Most Searched